Flag for Russia Weather past 2 weeks in Saint-Petersburg, Russia

Now
59 °F

Sunny.


Feels Like: 59 °F
Forecast: 46 / 64 °F
Wind: 1 mph from North

Location: St. Petersburg

Current Time: Sep 19, 2014 at 12:39:37 PM

Latest Report: Sep 19, 2014 at 12:00 PM


Visibility: 10 mi

Pressure: 30.24 "Hg

Humidity: 77%

Dew point: 52 °F

Location of Saint-PetersburgLocation

Historic Weather in Saint-Petersburg — Graph

°F

Saint-Petersburg temperature yesterday

Maximum temperature yesterday: 66 °F (at 2:30 PM)
Minimum temperature yesterday: 37 °F (at 8:00 AM)
Average temperature yesterday: 52 °F

Past Weeks' High & Low Weather Summary

 TemperatureHumidityPressure
High77 °F (Sep 11, 3:30 PM)100% (Sep 7, 2:00 AM)30.45 "Hg (Sep 7, 2:00 AM)
Low37 °F (Sep 18, 8:00 AM)34% (Sep 16, 4:30 PM)29.98 "Hg (Sep 9, 6:30 PM)
Average57 °F79%30.24 "Hg
* Reported Sep 4 11:00 AM — Sep 19 11:30 AM, Saint-Petersburg, Weather by CustomWeather, © 2014

Note: Actual official high and low records may vary slightly from our data, if they occured in-between our weather recording intervals... More about our weather records

Advertising

Saint-Petersburg weather history for previous 24 hours

 ConditionsComfort  
Time TempWeatherWind HumidityBarometerVisibility
11:30 AM
Sep 19
57 °FClear.No wind82%30.24 "Hg5 mi
11:00 AM55 °FClear.No wind88%30.24 "Hg5 mi
10:30 AM54 °FClear.No wind88%30.24 "Hg4 mi
10:00 AM52 °FClear.No wind94%30.24 "Hg4 mi
9:30 AM50 °FClear.1 mph94%30.24 "Hg4 mi
9:00 AM48 °FClear.1 mph100%30.24 "Hg4 mi
8:30 AM46 °FFog.1 mph100%30.24 "Hg3 mi
8:00 AM48 °FFog.1 mph94%30.24 "Hg3 mi
7:30 AM48 °FFog.No wind94%30.24 "Hg1 mi
7:00 AM46 °FFog.3 mph93%30.24 "Hg1 mi
6:30 AM46 °FFog.1 mph93%30.24 "Hg0 mi
6:00 AM46 °FFog.No wind100%30.24 "Hg1 mi
5:30 AM46 °FFog.3 mph100%30.27 "Hg1 mi
5:00 AM45 °FFog.1 mph100%30.27 "Hg1 mi
4:30 AM46 °FFog.1 mph100%30.27 "Hg1 mi
4:00 AM46 °FClear.1 mph100%30.27 "Hg4 mi
3:30 AM46 °FPassing clouds.3 mph93%30.27 "Hg4 mi
3:00 AM48 °FPassing clouds.1 mph94%30.27 "Hg4 mi
2:30 AM46 °FFog.1 mph93%30.27 "Hg1 mi
2:00 AM46 °FFog.1 mph93%30.27 "Hg0 mi
1:30 AM45 °FFog.1 mph100%30.27 "Hg1 mi
1:00 AM45 °FFog.No wind100%30.27 "Hg1 mi
12:30 AM46 °FFog.1 mph87%30.27 "Hg4 mi
12:00 AM46 °FLight fog.3 mph100%30.27 "Hg4 mi
11:30 PM
Sep 18
48 °FFog.3 mph94%30.27 "Hg1 mi
11:00 PM48 °FFog.1 mph94%30.27 "Hg5 mi
10:30 PM48 °FFog.No wind94%30.27 "Hg1 mi
10:00 PM50 °FClear.No wind94%30.27 "Hg10 mi
9:30 PM50 °FClear.No wind88%30.27 "Hg10 mi
9:00 PM54 °FSunny.No wind82%30.27 "Hg10 mi
8:30 PM55 °FSunny.No wind77%30.27 "Hg10 mi
8:00 PM57 °FSunny.1 mph72%30.27 "Hg10 mi
7:30 PM59 °FSunny.3 mph68%30.27 "Hg10 mi
7:00 PM63 °FSunny.6 mph59%30.27 "Hg10 mi
6:30 PM63 °FSunny.6 mph59%30.27 "Hg10 mi
6:00 PM64 °FSunny.6 mph56%30.27 "Hg10 mi
5:30 PM64 °FBroken clouds.6 mph52%30.27 "HgN/A
5:00 PM63 °FPartly sunny.6 mph59%30.27 "HgN/A
4:30 PM64 °FPartly sunny.6 mph52%30.27 "HgN/A
4:00 PM64 °FPartly sunny.3 mph52%30.27 "HgN/A
3:30 PM64 °FBroken clouds.3 mph52%30.30 "HgN/A
3:00 PM64 °FScattered clouds.6 mph52%30.30 "HgN/A
2:30 PM66 °FScattered clouds.6 mph49%30.30 "HgN/A
2:00 PM64 °FScattered clouds.3 mph52%30.30 "HgN/A
1:30 PM64 °FScattered clouds.3 mph52%30.30 "HgN/A
1:00 PM64 °FSunny.1 mph56%30.30 "Hg10 mi
12:30 PM63 °FSunny.3 mph56%30.33 "Hg10 mi
12:00 PM61 °FSunny.1 mph55%30.33 "Hg10 mi
Weather by CustomWeather, © 2014

See weather overviewHow to use our weather pages